Satellite: FALCON
Catalog number: 30776
Epoch time:      09267.92099022
Element set:     664
Inclination:      035.4340 deg
RA of node:       214.2815 deg
Eccentricity:    0.0001159
Arg of perigee:   022.6398 deg
Mean anomaly:     337.4376 deg
Mean motion:   15.03308892 rev/day
Decay rate:       3.76e-06 rev/day^2
Epoch rev:           14011
Checksum:              288

Satellite: MAST
Catalog number: 31126
Epoch time:      09266.68198275
Element set:     692
Inclination:      097.9767 deg
RA of node:       316.9232 deg
Eccentricity:    0.0094608
Arg of perigee:   334.8326 deg
Mean anomaly:     024.8271 deg
Mean motion:   14.53517352 rev/day
Decay rate:       -1.5e-07 rev/day^2
Epoch rev:           12934
Checksum:              322

Satellite: CAPE1
Catalog number: 31130
Epoch time:      09267.71372517
Element set:     702
Inclination:      097.9796 deg
RA of node:       315.8699 deg
Eccentricity:    0.0102718
Arg of perigee:   337.7508 deg
Mean anomaly:     021.9253 deg
Mean motion:   14.52088193 rev/day
Decay rate:        8.8e-07 rev/day^2
Epoch rev:           12913
Checksum:              320

Satellite: COMPASS
Catalog number: 32787
Epoch time:      09267.24197014
Element set:     471
Inclination:      097.9334 deg
RA of node:       330.1796 deg
Eccentricity:    0.0016944
Arg of perigee:   072.1147 deg
Mean anomaly:     288.1901 deg
Mean motion:   14.81658306 rev/day
Decay rate:       2.12e-06 rev/day^2
Epoch rev:            7611
Checksum:              301

Satellite: AAUSAT2
Catalog number: 32788
Epoch time:      09267.74178269
Element set:     467
Inclination:      097.9329 deg
RA of node:       330.7497 deg
Eccentricity:    0.0016680
Arg of perigee:   071.0661 deg
Mean anomaly:     289.2347 deg
Mean motion:   14.81783954 rev/day
Decay rate:       3.00e-06 rev/day^2
Epoch rev:            7619
Checksum:              349

Satellite: DO-64
Catalog number: 32789
Epoch time:      09267.76346464
Element set:     482
Inclination:      097.9367 deg
RA of node:       330.9995 deg
Eccentricity:    0.0016792
Arg of perigee:   069.1001 deg
Mean anomaly:     291.1998 deg
Mean motion:   14.81797022 rev/day
Decay rate:       4.69e-06 rev/day^2
Epoch rev:            7619
Checksum:              370

Satellite: CO-66
Catalog number: 32791
Epoch time:      09267.16135932
Element set:     463
Inclination:      097.9349 deg
RA of node:       330.1327 deg
Eccentricity:    0.0017298
Arg of perigee:   069.4864 deg
Mean anomaly:     290.8203 deg
Mean motion:   14.81481288 rev/day
Decay rate:       3.76e-06 rev/day^2
Epoch rev:            7606
Checksum:              339

Satellite: RS-30
Catalog number: 32953
Epoch time:      09266.30655574
Element set:    0414
Inclination:      082.5039 deg
RA of node:       195.6012 deg
Eccentricity:    0.0019024
Arg of perigee:   329.3307 deg
Mean anomaly:     030.6658 deg
Mean motion:   12.43003151 rev/day
Decay rate:        1.0e-07 rev/day^2
Epoch rev:           06058
Checksum:              265

Satellite: TACSAT-3
Catalog number: 35001
Epoch time:      09267.68744490
Element set:     104
Inclination:      040.4564 deg
RA of node:       005.4931 deg
Eccentricity:    0.0023397
Arg of perigee:   184.6781 deg
Mean anomaly:     175.3817 deg
Mean motion:   15.39197617 rev/day
Decay rate:      2.513e-05 rev/day^2
Epoch rev:            1968
Checksum:              312

Satellite: PHARMSAT
Catalog number: 35002
Epoch time:      09267.68883938
Element set:     101
Inclination:      040.4699 deg
RA of node:       004.7396 deg
Eccentricity:    0.0026619
Arg of perigee:   188.7586 deg
Mean anomaly:     171.2767 deg
Mean motion:   15.39949571 rev/day
Decay rate:      2.253e-05 rev/day^2
Epoch rev:            1968
Checksum:              345

Satellite: HAWKSAT1
Catalog number: 35003
Epoch time:      09266.67122187
Element set:     105
Inclination:      040.4631 deg
RA of node:       010.1201 deg
Eccentricity:    0.0026214
Arg of perigee:   185.0812 deg
Mean anomaly:     174.9742 deg
Mean motion:   15.40694234 rev/day
Decay rate:      4.531e-05 rev/day^2
Epoch rev:            1954
Checksum:              250

Satellite: CP6
Catalog number: 35004
Epoch time:      09266.66990159
Element set:      99
Inclination:      040.4607 deg
RA of node:       010.1109 deg
Eccentricity:    0.0025561
Arg of perigee:   184.5654 deg
Mean anomaly:     175.4935 deg
Mean motion:   15.40762201 rev/day
Decay rate:      5.363e-05 rev/day^2
Epoch rev:            1953
Checksum:              294

Satellite: AEROCUB3
Catalog number: 35005
Epoch time:      09267.20387752
Element set:     100
Inclination:      040.4747 deg
RA of node:       007.2635 deg
Eccentricity:    0.0025612
Arg of perigee:   185.9443 deg
Mean anomaly:     174.1073 deg
Mean motion:   15.40556961 rev/day
Decay rate:      4.854e-05 rev/day^2
Epoch rev:            1961
Checksum:              285

Satellite: DRAGNSAT
Catalog number: 35690
Epoch time:      09267.13185014
Element set:      53
Inclination:      051.6396 deg
RA of node:       155.5580 deg
Eccentricity:    0.0002188
Arg of perigee:   283.2389 deg
Mean anomaly:     076.8367 deg
Mean motion:   15.82789980 rev/day
Decay rate:     2.9262e-04 rev/day^2
Epoch rev:             880
Checksum:              329

